[[{"header":{"parameterUnit":"m.s-1","parameterCategory":1,"la1":30.2991,"la2":30.254,"lo1":-89.0895,"lo2":-89.0444,"dy":0.0017,"dx":0.0017,"nx":28,"ny":28,"refTime":"2025-04-13T09:00:00:Z","depth":0,"parameterNumber":2,"parameterNumberName":"U-component_of_WINDS"},"data":[0,0,0,0,0,0,0,0,0,0,0,0,0,0,0,0,0,0,0,0,0,0,0,0,0,0,0,0,0,0,0,0,0,0,0,0,0,0,0,0,0,0,0,0,0,0,0,0,0,0,0,0,0,0,0,0,0,0,-2.4516,-2.4517,0,-2.4561,-2.4562,-2.4562,-2.451,-2.4508,-2.4506,-2.4504,-2.4549,-2.4552,-2.4555,0,0,0,0,0,0,0,0,0,0,0,0,0,-2.4384,-2.4386,-2.4516,-2.4517,-2.4518,-2.4561,-2.4562,-2.4563,-2.451,-2.4508,-2.4505,-2.4503,-2.4548,-2.4552,-2.4555,0,0,0,0,0,0,0,0,0,0,0,0,0,-2.4436,-2.4387,-2.4516,-2.4497,-2.4495,-2.4561,-2.4562,-2.4563,-2.4511,-2.4508,-2.4505,-2.4502,-2.4547,-2.4551,-2.4556,-2.4643,0,0,-2.457,-2.4572,0,0,0,0,0,0,0,0,-2.4433,-2.4441,-2.4499,-2.4498,-2.4497,-2.4527,-2.4532,-2.459,-2.4511,-2.4505,-2.4504,-2.4501,-2.4544,-2.4549,-2.4563,-2.4645,-2.4647,-2.457,-2.4573,-2.4575,-2.4576,0,0,0,0,0,0,0,-2.443,-2.4439,-2.4534,-2.45,-2.4499,-2.4485,-2.4489,-2.4542,-2.454,-2.4505,-2.4501,-2.4508,-2.4543,-2.4559,-2.4564,-2.4647,-2.457,-2.4574,-2.4577,-2.4578,-2.4802,-2.4805,0,0,0,0,0,0,-2.4429,-2.4436,-2.4533,-2.4536,-2.4457,-2.449,-2.4495,-2.452,-2.454,-2.454,-2.451,-2.4505,-2.4553,-2.4559,-2.4565,-2.4668,-2.4575,-2.4579,-2.4581,-2.4799,-2.4802,-2.4806,0,0,0,0,0,0,-2.4426,-2.4438,-2.4531,-2.4485,-2.4496,-2.4495,-2.4525,-2.4523,-2.4539,-2.4543,-2.4543,-2.4527,-2.4551,-2.4559,-2.4624,-2.4669,-2.4581,-2.4585,-2.4795,-2.48,-2.4804,-2.4874,0,0,0,0,0,0,-2.4422,-2.4437,-2.4471,-2.4486,-2.4498,-2.4589,-2.4527,-2.4526,-2.4547,-2.4541,-2.4559,-2.4559,-2.4549,-2.4617,-2.4628,-2.4674,-2.4589,-2.4791,-2.4797,-2.4803,-2.4868,-2.4881,-2.4892,0,0,0,0,0,-2.4418,-2.4488,-2.4473,-2.4484,-2.454,-2.4592,-2.4599,-2.4586,-2.4551,-2.4584,-2.4587,-2.4559,-2.4662,-2.4624,-2.4636,-2.4684,-2.4788,-2.4795,-2.4802,-2.4863,-2.4878,-2.4892,0,0,0,0,0,0,-2.4478,-2.449,-2.4473,-2.455,-2.4571,-2.4583,-2.4624,-2.4603,-2.4633,-2.4626,-2.4608,-2.4613,-2.4682,-2.4689,-2.4647,-2.4768,-2.4719,-2.4729,-2.4761,-2.4776,-2.4788,-2.4784,-2.4592,0,0,0,0,0,-2.45,-2.4541,-2.455,-2.4618,-2.4629,-2.4625,-2.4647,-2.4635,-2.4655,-2.4663,-2.4671,-2.4691,-2.4728,-2.4752,-2.4787,-2.4869,-2.4872,-2.4907,-2.4919,-2.4929,-2.4938,-2.4981,-2.4997,-2.483,-2.4829,-2.4829,0,0,-2.4547,-2.4558,-2.4586,-2.463,-2.4644,-2.4687,-2.4633,-2.468,-2.4711,-2.467,-2.4732,-2.4738,-2.4759,-2.4833,-2.4866,-2.4841,-2.4985,-2.4938,-2.4946,-2.495,-2.499,-2.5006,-2.502,-2.4834,-2.4834,-2.4833,0,0,-2.4653,-2.4666,-2.4724,-2.4739,-2.4762,-2.4759,-2.4773,-2.4788,-2.4791,-2.4853,-2.4823,-2.4859,-2.4924,-2.494,-2.4956,-2.5069,-2.5044,-2.5081,-2.5143,-2.5186,-2.5199,-2.521,-2.525,-2.5264,-2.5089,-2.5089,-2.509,0,-2.4708,-2.4771,-2.4756,-2.4806,-2.4826,-2.4791,-2.4849,-2.4865,-2.4897,-2.4912,-2.4884,-2.4963,-2.4975,-2.5052,-2.5079,-2.5094,-2.5109,-2.5078,-2.5198,-2.521,-2.522,-2.5258,-2.5273,-2.5094,-2.5093,-2.5093,-2.5092,0,-2.4837,-2.4881,-2.4925,-2.4957,-2.4983,-2.5036,-2.5029,-2.5056,-2.5042,-2.5042,-2.5105,-2.5118,-2.5154,-2.5172,-2.5159,-2.5247,-2.5231,-2.5201,-2.5151,-2.5241,-2.5276,-2.529,-2.51,-2.5098,-2.5097,-2.5096,0,0,-2.4982,-2.5005,-2.5022,-2.5036,-2.5058,-2.5091,-2.5143,-2.5179,-2.5202,-2.5226,-2.5268,-2.5323,-2.5296,-2.5315,-2.5303,-2.5341,-2.5428,-2.5306,-2.5306,-2.5328,-2.5525,-2.5547,-2.5564,-2.5412,-2.5415,-2.5417,-2.5523,0,-2.5088,-2.5178,-2.5166,-2.5252,-2.5293,-2.526,-2.5305,-2.5323,-2.5325,-2.5359,-2.536,-2.5399,-2.536,-2.5372,-2.5407,-2.541,-2.5467,-2.5402,-2.5451,-2.5453,-2.5446,-2.5582,-2.5605,-2.5705,-2.5537,-2.5539,-2.5541,0,-2.5224,-2.5252,-2.5343,-2.5358,-2.5374,-2.5415,-2.5446,-2.548,-2.5499,-2.5498,-2.5519,-2.5501,-2.5552,-2.5502,-2.5572,-2.5528,-2.5547,-2.5551,-2.5554,-2.5558,-2.5502,-2.5589,-2.5737,-2.5751,-2.5562,-2.556,-2.5559,0,-2.532,-2.5381,-2.5442,-2.5455,-2.5475,-2.5504,-2.5514,-2.553,-2.5552,-2.558,-2.5594,-2.5627,-2.5645,-2.5671,-2.5661,-2.5626,-2.5733,-2.5682,-2.5733,-2.5733,-2.5756,-2.5755,-2.5909,-2.577,-2.577,-2.577,-2.5769,0,-2.5439,-2.5495,-2.5486,-2.5524,-2.5585,-2.5571,-2.5633,-2.5638,-2.5653,-2.5691,-2.5665,-2.5702,-2.5688,-2.5723,-2.5716,-2.5775,-2.5783,-2.5783,-2.578,-2.5785,-2.5785,-2.5797,-2.5789,-2.5774,-2.5773,-2.5772,-2.5771,0,-2.5557,-2.5552,-2.5617,-2.5631,-2.5635,-2.568,-2.5691,-2.5727,-2.5726,-2.5774,-2.5785,-2.5784,-2.5824,-2.5817,-2.5862,-2.5857,-2.593,-2.592,-2.5924,-2.5921,-2.5972,-2.5967,-2.6138,-2.616,-2.6008,-2.6009,-2.601,0,-2.5633,-2.5675,-2.5693,-2.5717,-2.5728,-2.5767,-2.5789,-2.5777,-2.5801,-2.5826,-2.5859,-2.5896,-2.5926,-2.5991,-2.5994,-2.6028,-2.6017,-2.6075,-2.6022,-2.6025,-2.6017,-2.6015,-2.6019,-2.6085,-2.6087,-2.6089,-2.609,0,-2.5768,-2.5764,-2.5797,-2.583,-2.5857,-2.5882,-2.5905,-2.5926,-2.5915,-2.5943,-2.5984,-2.6007,-2.6052,-2.609,-2.6122,-2.6131,-2.6109,-2.6106,-2.612,-2.6125,-2.6125,-2.6125,-2.5952,-2.6102,-2.6101,-2.61,-2.6099,-2.6099,-2.5867,-2.5903,-2.5921,-2.5959,-2.5974,-2.5996,-2.603,-2.6033,-2.6067,-2.6103,-2.6093,-2.6139,-2.6157,-2.6198,-2.621,-2.6246,-2.6224,-2.6244,-2.6249,-2.6254,-2.6259,-2.612,-2.6252,-2.6251,-2.6251,-2.6251,-2.625,0,-2.6,-2.601,-2.6045,-2.6077,-2.6107,-2.6084,-2.6107,-2.6134,-2.6175,-2.6193,-2.6223,-2.627,-2.6306,-2.6312,-2.6346,-2.6374,-2.6364,-2.6383,-2.638,-2.6383,-2.6277,-2.6262,-2.639,-2.639,-2.639,-2.639,-2.639,-2.639,-2.6073,-2.6133,-2.6131,-2.6198,-2.6207,-2.6252,-2.6267,-2.6287,-2.6302,-2.6355,-2.6385,-2.6389,-2.6402,-2.6437,-2.647,-2.647,-2.6484,-2.6507,-2.6504,-2.6404,-2.639,-2.6377,-2.6363,-2.651,-2.651,-2.6606,-2.6607,-2.6608]},{"header":{"parameterUnit":"m.s-1","parameterCategory":1,"la1":30.2991,"la2":30.254,"lo1":-89.0895,"lo2":-89.0444,"dy":0.0017,"dx":0.0017,"nx":28,"ny":28,"refTime":"2025-04-13T09:00:00:Z","depth":0,"parameterNumber":3,"parameterNumberName":"V-component_of_WINDS"},"data":[0,0,0,0,0,0,0,0,0,0,0,0,0,0,0,0,0,0,0,0,0,0,0,0,0,0,0,0,0,0,0,0,0,0,0,0,0,0,0,0,0,0,0,0,0,0,0,0,0,0,0,0,0,0,0,0,0,0,-0.7005,-0.7005,0,-0.7002,-0.7002,-0.7002,-0.7012,-0.7013,-0.7013,-0.7013,-0.7008,-0.7008,-0.7008,0,0,0,0,0,0,0,0,0,0,0,0,0,-0.702,-0.7019,-0.7005,-0.7005,-0.7005,-0.7002,-0.7002,-0.7002,-0.7012,-0.7013,-0.7013,-0.7013,-0.7009,-0.7008,-0.7008,0,0,0,0,0,0,0,0,0,0,0,0,0,-0.7014,-0.7019,-0.7005,-0.701,-0.7011,-0.7002,-0.7002,-0.7002,-0.7012,-0.7013,-0.7013,-0.7014,-0.7009,-0.7008,-0.7008,-0.6993,0,0,-0.7005,-0.7005,0,0,0,0,0,0,0,0,-0.7015,-0.7014,-0.7009,-0.701,-0.701,-0.7008,-0.7005,-0.6999,-0.7012,-0.7012,-0.7013,-0.7014,-0.7008,-0.7007,-0.7005,-0.6993,-0.6993,-0.7005,-0.7005,-0.7005,-0.7005,0,0,0,0,0,0,0,-0.7015,-0.7014,-0.7004,-0.7009,-0.701,-0.7012,-0.7012,-0.7004,-0.7007,-0.7012,-0.7012,-0.7012,-0.7008,-0.7006,-0.7005,-0.6993,-0.7005,-0.7005,-0.7004,-0.7004,-0.6968,-0.6967,0,0,0,0,0,0,-0.7015,-0.7014,-0.7004,-0.7004,-0.7014,-0.7011,-0.7011,-0.7008,-0.7007,-0.7007,-0.7011,-0.7012,-0.7007,-0.7006,-0.7005,-0.6988,-0.7005,-0.7004,-0.7004,-0.6968,-0.6967,-0.6967,0,0,0,0,0,0,-0.7015,-0.7014,-0.7004,-0.7009,-0.7008,-0.701,-0.7007,-0.7008,-0.7006,-0.7007,-0.7007,-0.7009,-0.7007,-0.7006,-0.6996,-0.6988,-0.7004,-0.7003,-0.6969,-0.6968,-0.6967,-0.6953,0,0,0,0,0,0,-0.7016,-0.7014,-0.7009,-0.7009,-0.7008,-0.6995,-0.7007,-0.7007,-0.7005,-0.7006,-0.7005,-0.7005,-0.7008,-0.6997,-0.6995,-0.6987,-0.7003,-0.697,-0.6968,-0.6967,-0.6955,-0.6952,-0.695,0,0,0,0,0,-0.7016,-0.7005,-0.7009,-0.7008,-0.7002,-0.6995,-0.6994,-0.6998,-0.7004,-0.6999,-0.6999,-0.7005,-0.6989,-0.6996,-0.6994,-0.6986,-0.697,-0.6969,-0.6967,-0.6956,-0.6953,-0.695,0,0,0,0,0,0,-0.7004,-0.7006,-0.7009,-0.6999,-0.6997,-0.6997,-0.699,-0.6995,-0.6991,-0.6992,-0.6997,-0.6996,-0.6985,-0.6984,-0.6992,-0.6971,-0.6981,-0.6979,-0.6972,-0.6969,-0.6967,-0.6967,-0.7002,0,0,0,0,0,-0.7001,-0.6995,-0.6997,-0.6987,-0.6986,-0.6988,-0.6985,-0.6988,-0.6986,-0.6985,-0.6985,-0.6983,-0.6977,-0.6973,-0.6968,-0.6955,-0.6954,-0.6948,-0.6946,-0.6944,-0.6942,-0.6934,-0.6931,-0.6962,-0.6963,-0.6963,0,0,-0.6993,-0.6993,-0.6989,-0.6984,-0.6983,-0.6977,-0.6987,-0.6981,-0.6976,-0.6984,-0.6975,-0.6974,-0.6972,-0.6959,-0.6954,-0.6959,-0.6933,-0.6942,-0.6941,-0.694,-0.6932,-0.6929,-0.6926,-0.6962,-0.6962,-0.6962,0,0,-0.6975,-0.6975,-0.6966,-0.6965,-0.6963,-0.6964,-0.6962,-0.6962,-0.6962,-0.6952,-0.6958,-0.6952,-0.6942,-0.694,-0.6937,-0.6918,-0.6922,-0.6916,-0.6904,-0.6896,-0.6893,-0.6891,-0.6883,-0.688,-0.6914,-0.6914,-0.6914,0,-0.6965,-0.6956,-0.6961,-0.6954,-0.6951,-0.6958,-0.6949,-0.6947,-0.6944,-0.6941,-0.6947,-0.6934,-0.6933,-0.692,-0.6915,-0.6913,-0.691,-0.6916,-0.6893,-0.6891,-0.6889,-0.6881,-0.6878,-0.6913,-0.6913,-0.6913,-0.6914,0,-0.6944,-0.6938,-0.6931,-0.6927,-0.6924,-0.6916,-0.6918,-0.6914,-0.6917,-0.6918,-0.6907,-0.6906,-0.69,-0.6897,-0.69,-0.6884,-0.6887,-0.6893,-0.6902,-0.6885,-0.6878,-0.6875,-0.6912,-0.6912,-0.6913,-0.6913,0,0,-0.6919,-0.6917,-0.6915,-0.6913,-0.6911,-0.6906,-0.6897,-0.6892,-0.6888,-0.6885,-0.6877,-0.6869,-0.6874,-0.6871,-0.6873,-0.6866,-0.6849,-0.6873,-0.6873,-0.6867,-0.683,-0.6825,-0.6822,-0.6852,-0.6852,-0.6851,-0.683,0,-0.6901,-0.6887,-0.689,-0.6876,-0.687,-0.6876,-0.6869,-0.6866,-0.6866,-0.6861,-0.6861,-0.6854,-0.6862,-0.686,-0.6853,-0.6853,-0.6841,-0.6854,-0.6844,-0.6844,-0.6844,-0.6818,-0.6813,-0.6793,-0.6827,-0.6827,-0.6826,0,-0.6878,-0.6874,-0.6859,-0.6857,-0.6855,-0.6848,-0.6843,-0.6837,-0.6834,-0.6835,-0.6831,-0.6835,-0.6825,-0.6835,-0.6821,-0.683,-0.6826,-0.6825,-0.6824,-0.6823,-0.6834,-0.6815,-0.6787,-0.6783,-0.6822,-0.6822,-0.6823,0,-0.686,-0.6851,-0.6841,-0.6839,-0.6837,-0.6831,-0.683,-0.6828,-0.6824,-0.6819,-0.6816,-0.681,-0.6807,-0.6802,-0.6803,-0.681,-0.6789,-0.6799,-0.6789,-0.6788,-0.6783,-0.6784,-0.6753,-0.6782,-0.6782,-0.6782,-0.6782,0,-0.6839,-0.6829,-0.6832,-0.6826,-0.6815,-0.6819,-0.6808,-0.6807,-0.6804,-0.6797,-0.6803,-0.6796,-0.6799,-0.6792,-0.6793,-0.6781,-0.6779,-0.6779,-0.6779,-0.6778,-0.6778,-0.6775,-0.6776,-0.6781,-0.6781,-0.6782,-0.6782,0,-0.6817,-0.6819,-0.6808,-0.6806,-0.6806,-0.6798,-0.6796,-0.679,-0.679,-0.6781,-0.6779,-0.678,-0.6771,-0.6773,-0.6764,-0.6764,-0.6749,-0.6751,-0.675,-0.675,-0.6739,-0.674,-0.6705,-0.6701,-0.6733,-0.6733,-0.6733,0,-0.6803,-0.6796,-0.6794,-0.6789,-0.6788,-0.6781,-0.6777,-0.678,-0.6775,-0.6771,-0.6765,-0.6757,-0.6751,-0.6738,-0.6737,-0.6729,-0.6731,-0.6719,-0.673,-0.6729,-0.673,-0.673,-0.6729,-0.6717,-0.6717,-0.6717,-0.6716,0,-0.6778,-0.6779,-0.6773,-0.6768,-0.6763,-0.6759,-0.6755,-0.6751,-0.6753,-0.6748,-0.674,-0.6735,-0.6725,-0.6717,-0.6711,-0.6708,-0.6712,-0.6713,-0.671,-0.6709,-0.6708,-0.6707,-0.6744,-0.6714,-0.6714,-0.6714,-0.6714,-0.6714,-0.6759,-0.6752,-0.675,-0.6743,-0.674,-0.6736,-0.673,-0.6729,-0.6723,-0.6716,-0.6718,-0.6708,-0.6704,-0.6695,-0.6692,-0.6684,-0.6688,-0.6684,-0.6683,-0.6682,-0.668,-0.6709,-0.6683,-0.6683,-0.6683,-0.6683,-0.6683,0,-0.6733,-0.6732,-0.6726,-0.672,-0.6714,-0.6719,-0.6715,-0.6709,-0.6701,-0.6697,-0.6691,-0.6681,-0.6673,-0.6671,-0.6663,-0.6657,-0.6659,-0.6655,-0.6655,-0.6654,-0.6677,-0.668,-0.6654,-0.6654,-0.6654,-0.6654,-0.6654,-0.6654,-0.6719,-0.6708,-0.6709,-0.6696,-0.6694,-0.6685,-0.6682,-0.6678,-0.6675,-0.6664,-0.6657,-0.6656,-0.6653,-0.6645,-0.6637,-0.6637,-0.6633,-0.6628,-0.6628,-0.665,-0.6653,-0.6656,-0.6658,-0.6628,-0.6628,-0.6606,-0.6606,-0.6606]}]]